Regional Weather Roundup
Issued by NWS Sioux Falls, SD

Home | Current Version | Previous Version | Graphics & Text | Print | Product List | Glossary On
Versions: 1 2 3 4 5 6 7 8 9 10 11 12 13 14 15 16 17 18 19 20 21 22 23 24 25 26 27 28 29 30 31 32 33 34 35 36 37 38 39 40 41 42 43 44 45 46 47 48 49 50
000
ASUS43 KFSD 020410
RWRFSD

WEATHER ROUNDUP FOR SE SOUTH DAKOTA/SW MINNESOTA/NW IOWA
NATIONAL WEATHER SERVICE SIOUX FALLS SD
1100 PM CDT SAT AUG 01 2015

NOTE: "FAIR" INDICATES FEW OR NO CLOUDS BELOW 12,000 FEET WITH NO
SIGNIFICANT WEATHER AND OR OBSTRUCTIONS TO VISIBILITY.


SDZ038>040-050-052>070-020500-
SOUTHEAST SOUTH DAKOTA

CITY           SKY/WX    TMP DP  RH WIND       PRES   REMARKS
BROOKINGS      CLEAR     72  63  73 S9        29.83S
CHAMBERLAIN    CLEAR     71  61  70 SW10      29.84S
HURON          CLEAR     76  63  64 SW9       29.78S
MADISON        FAIR      73  63  68 SW13      29.84S
MITCHELL       CLEAR     77  63  61 SW8       29.82R
SIOUX FALLS    PTCLDY    75  67  76 SW8       29.84S
WINNER         FAIR      77  59  53 SW12      29.87S
YANKTON        CLEAR     73  63  68 SW9       29.85S
$$

MNZ071-072-080-081-089-090-097-098-020500-
SOUTHWEST MINNESOTA

CITY           SKY/WX    TMP DP  RH WIND       PRES   REMARKS
FAIRMONT       CLEAR     73  63  68 SW9       29.85F
JACKSON        CLEAR     72  64  78 S8        29.86F
LUVERNE        PTCLDY    70  66  88 S3        29.86S
MARSHALL       PTCLDY    75  61  60 SW15G21   29.79F
MONTEVIDEO     PTCLDY    73  63  68 SW5       29.77F
PIPESTONE      PTCLDY    72  64  78 SW12      29.84F
REDWOOD FALLS  CLEAR     73  64  73 S9        29.79R
TRACY          PTCLDY    75  64  69 SW18      29.81S
WINDOM         CLEAR     73  64  73 S10       29.85S
WORTHINGTON    CLEAR     72  64  78 S15       29.86F
$$

IAZ001>003-012>014-020>022-031-032-NEZ013-014-SDZ071-020500-
NORTHWEST IOWA

CITY           SKY/WX    TMP DP  RH WIND       PRES   REMARKS
CHEROKEE       CLEAR     69  68  98 S3        29.90R
DENISON        CLEAR     72  70  94 SW5       29.89F
ESTHERVILLE    CLEAR     70  66  87 SW9       29.87S
LE MARS        CLEAR     70  66  88 S5        29.89S
ORANGE CITY    CLEAR     68  64  88 S8        29.88F
SHELDON        CLEAR     70  68  94 S8G16     29.86S
SIOUX CITY     CLEAR     69  64  84 SE7       29.89R
SPENCER        CLEAR     70  66  87 S8        29.88S
STORM LAKE     CLEAR     68  66  94 SW6       29.92R
$$

ABBREVIATIONS USED IN REMARKS
   TC - TEMPERATURE IN CELSIUS
  WCI - WIND CHILL INDEX
   HX - HEAT INDEX
  VSB - VISIBILITY



USA.gov is the U.S. government's official web portal to all federal, state and local government web resources and services.